sat.trackr.live / text

‹ back to catalog

STARLINK-4185

NORAD 53139 · 2022-083H

PAYLOAD ACTIVE UNKNOWN

§ Identity

Operator
Country
US
Launch date
2022-07-17
Launch site
AFETR
Launch vehicle
Mass (kg)
RCS (m²)

Purposes: comms

External: N2YO · Heavens-Above · Gunter

§ Orbital elements

Epoch: 2026-05-24T12:06:58.655520Z

Period
95.44 min
Inclination
53.2137°
Eccentricity
0.0001157
Mean motion
15.08812399 rev/d
Perigee alt
539.0 km
Apogee alt
540.6 km
Semi-major
6,918.0 km
B*
3.1505e-4
RAAN
193.7736°
Arg perigee
97.1328°
Mean anomaly
262.9796°
Rev number
21,266

§ Raw data

STARLINK-41851 53139U 22083H   26144.50484555  .00004726  00000+0  31505-3 0  99942 53139  53.2137 193.7736 0001157  97.1328 262.9796 15.08812399212668

JSON: /api/v1/satellites/53139 · /tle

For live sub-satellite position, see the globe view (requires WebGL).

§ Visibility from observer

Set your observer location to see the next 7 days of passes ≥ 10°. The values pass through the URL so the page stays shareable.

No JS? Fill the form by hand. The geolocation button needs JavaScript.